Weather History for Aurora, IL

Change the Weather History Date:

Sunday, January 12, 2014

  Actual Average Record
Temperature  
Mean Temperature 34 °F 21 °F  
Max Temperature 39 °F 29 °F 58 °F (2005)
Min Temperature 30 °F 13 °F -2 °F (2009)
Degree Days  
Heating Degree Days 30 44  
Month to date heating degree days 469 526  
Since 1 July heating degree days 3298 3175  
Moisture  
Dew Point 31 °F    
Average Humidity 85    
Maximum Humidity 100    
Minimum Humidity 70    
Precipitation  
Precipitation 0.00 in 0.04 in 0.75 in (2005)
Month to date precipitation 0.78 0.49  
Year to date precipitation 0.78 0.49  
Sea Level Pressure  
Sea Level Pressure 29.75 in    
Wind  
Wind Speed 15 mph (South)    
Max Wind Speed 23 mph    
Max Gust Speed 32 mph    
Visibility 7 miles    
Events      
T = Trace of Precipitation, MM = Missing Value Source: NWS Daily Summary

Daily Weather History Graph

Daily Weather History Graph

Search for Another Location

Airport:

Trip Planner

Search our weather history database for the weather conditions in past years. The results will help you decide how hot, cold, wet, or windy it might be!

Date:

Astronomy

Jan. 12, 2014 Rise Set
Actual Time 7:19 AM CST 4:44 PM CST
Civil Twilight 6:49 AM CST 5:15 PM CST
Nautical Twilight 6:14 AM CST 5:50 PM CST
Astronomical Twilight 5:41 AM CST 6:23 PM CST
Moon 2:12 PM CST (1/12) 4:18 AM CST (1/12)
Length of Visible Light 10h 26m
Length of Day
9h 25m
Waxing Gibbous, 90% of the Moon is Illuminated
Jan 12
Waxing Gibbous
Jan 15
Full
Jan 23
Last Quarter
Jan 30
New
Feb 6
First Quarter

Hourly Weather History & Observations

Time (CST) Temp. Windchill Dew Point Humidity Pressure Visibility Wind Dir Wind Speed Gust Speed Precip Events Conditions
12:52 AM - - - N/A% 29.81 in 8.0 mi West 15.0 mph - N/A   Overcast
1:52 AM - - - N/A% 29.83 in 8.0 mi West 15.0 mph - N/A   Overcast
2:52 AM - - - N/A% 29.83 in 8.0 mi WSW 12.7 mph - N/A   Overcast
3:36 AM - - - N/A% 29.85 in 7.0 mi WSW 12.7 mph - N/A   Overcast
3:52 AM - - - N/A% 29.84 in 5.0 mi WSW 11.5 mph - N/A   Haze
4:52 AM - - - N/A% 29.84 in 6.0 mi WSW 11.5 mph - N/A   Haze
5:52 AM - - - N/A% 29.85 in 6.0 mi SSW 10.4 mph - N/A   Haze
6:52 AM - - - N/A% 29.84 in 5.0 mi South 13.8 mph - N/A   Haze
7:52 AM - - - N/A% 29.84 in 5.0 mi South 15.0 mph - N/A   Haze
8:52 AM - - - N/A% 29.86 in 5.0 mi South 13.8 mph - N/A   Haze
9:37 AM - - - N/A% 29.85 in 2.5 mi SSE 17.3 mph 24.2 mph N/A   Overcast
9:52 AM 30.0 °F 17.9 °F 28.0 °F 92% 29.84 in 3.0 mi SSE 18.4 mph 24.2 mph N/A   Overcast
10:23 AM 30.0 °F 18.7 °F 30.0 °F 100% 29.83 in 4.0 mi SSE 16.1 mph - N/A   Scattered Clouds
10:52 AM 30.0 °F 18.7 °F 30.0 °F 100% 29.81 in 5.0 mi South 16.1 mph - N/A   Clear
11:52 AM 32.0 °F 19.5 °F 28.9 °F 88% 29.74 in 6.0 mi SSE 21.9 mph - N/A   Clear
12:52 PM 34.0 °F 22.7 °F 30.0 °F 85% 29.70 in 5.0 mi South 19.6 mph - N/A   Clear
1:52 PM - - - N/A% 29.67 in 8.0 mi South 17.3 mph - N/A   Clear
2:52 PM 37.0 °F 25.9 °F 32.0 °F 82% 29.63 in 8.0 mi SSE 23.0 mph 32.2 mph N/A   Clear
3:52 PM 37.0 °F 28.1 °F 32.0 °F 82% 29.64 in 8.0 mi South 15.0 mph - N/A   Clear
4:52 PM 37.0 °F 28.9 °F 32.0 °F 82% 29.64 in 8.0 mi South 12.7 mph - N/A   Clear
5:52 PM 37.0 °F 29.8 °F 32.0 °F 82% 29.65 in 10.0 mi South 10.4 mph - N/A   Clear
6:52 PM 39.0 °F 31.4 °F 32.0 °F 76% 29.65 in 10.0 mi South 12.7 mph - N/A   Clear
7:52 PM 39.0 °F 29.9 °F 30.0 °F 70% 29.64 in 10.0 mi South 17.3 mph - N/A   Clear
8:52 PM 39.0 °F 31.0 °F 34.0 °F 82% 29.63 in 10.0 mi South 13.8 mph - N/A   Clear
9:52 PM 39.0 °F 30.6 °F 34.0 °F 82% 29.64 in 10.0 mi South 15.0 mph - N/A   Clear
10:52 PM - - - N/A% 29.61 in 10.0 mi SSW 10.4 mph - N/A   Clear
11:52 PM - - - N/A% 29.60 in 10.0 mi South 5.8 mph - N/A   Clear